Location: Elbart
(49.6135°N, 11.9134°E)
Time: 22:12:11
(UTC+00:00)

Cosmos 2322 Rocket - Pass Details

Date: 09 April 2020
Orbit: 834 x 849 km, 71.0° (Epoch: 03 June)

Event Time Altitude Azimuth Distance (km) Brightness Sun altitude
Rises 19:50:04 0° 332° (NNW) 3,409 6.5 -17.4°
Reaches altitude 10° 19:54:01 10° 359° (N) 2,468 5.1 -17.9°
Maximum altitude 19:56:39 13° 28° (NNE) 2,238 4.5 -18.2°
Drops below altitude 10° 19:59:17 10° 56° (NE) 2,459 4.4 -18.6°
Enters shadow 20:00:36 - 67° (ENE) 2,711 4.6 -18.7°
